{"data":{"norad_id":57347,"epoch":"2026-09-19T09:52:09.179904Z","epoch_age_seconds":218263,"freshness":"STALE","line1":"1 57347U 23099V   26262.41121736  .00000885  00000+0  41682-4 0  9997","line2":"2 57347  43.0035 241.7740 0001760 282.2486  77.8169 15.27576588175661","mean_motion":15.27576588,"eccentricity":0.000176,"inclination_deg":43.0035,"raan_deg":241.774,"arg_perigee_deg":282.2486,"mean_anomaly_deg":77.8169,"bstar":4.1682e-5,"rev_number":17566,"period_min":94.266959268166,"perigee_km":481.85174226308,"apogee_km":484.26688336519,"semimajor_km":6861.1963128141,"source":"CELESTRAK","updated_at":"2026-09-21T09:00:33.599771Z"}}